Mumbai, India

3:22 PM IST on December 06, 2016 (GMT +0530)
Chhatrapati Shivaji International

Weather History for VABB - October, 2013

Change the Weather History Date:

Tuesday, October 1, 2013

  Actual Average Record
Temperature  
Mean Temperature 84 °F -  
Max Temperature 89 °F 87 °F 98 °F (2002)
Min Temperature 80 °F 77 °F 73 °F (2014)
Cooling Degree Days 20    
Growing Degree Days 34 (Base 50)    
Moisture  
Dew Point 76 °F    
Average Humidity 79    
Maximum Humidity 89    
Minimum Humidity 63    
Precipitation  
Precipitation 0.08 in - - ()
Sea Level Pressure  
Sea Level Pressure 29.71 in    
Wind  
Wind Speed 8 mph ()    
Max Wind Speed 14 mph    
Max Gust Speed 22 mph    
Visibility 1.9 miles    
Events Rain    
Averages and records for this station are not official NWS values.
T = Trace of Precipitation, MM = Missing Value Source: Averaged Metar Reports

Daily Weather History Graph

Daily Weather History Graph

Search for Another Location

Airport or City:

Trip Planner

Search our weather history database for the weather conditions in past years. The results will help you decide how hot, cold, wet, or windy it might be!

Date:

Astronomy

Oct. 01, 2013 Rise Set
Actual Time 6:29 AM IST 6:27 PM IST
Civil Twilight 6:07 AM IST 6:48 PM IST
Nautical Twilight 5:41 AM IST 7:14 PM IST
Astronomical Twilight 5:16 AM IST 7:39 PM IST
Moon 3:04 AM IST (10/1) 3:53 PM IST (10/1)
Length of Visible Light 12h 41m
Length of Day
11h 57m
Waning Crescent, 15% of the Moon is Illuminated
Oct 1
Waning Crescent
Oct 5
New
Oct 12
First Quarter
Oct 19
Full
Oct 27
Last Quarter

Hourly Weather History & Observations

Time (IST) Temp. Heat Index Dew Point Humidity Pressure Visibility Wind Dir Wind Speed Gust Speed Precip Events Conditions
12:10 AM 82.4 °F 90.9 °F 77.0 °F 84% 29.71 in 1.9 mi WSW 9.2 mph - N/A   Haze
12:40 AM 82.4 °F 90.9 °F 77.0 °F 84% 29.71 in 1.9 mi WSW 9.2 mph - N/A   Haze
1:10 AM 82.4 °F 90.9 °F 77.0 °F 84% 29.71 in 1.9 mi WSW 9.2 mph - N/A   Haze
1:40 AM 82.4 °F 89.5 °F 75.2 °F 79% 29.68 in 1.9 mi WSW 6.9 mph - N/A   Haze
2:10 AM 82.4 °F 90.9 °F 77.0 °F 84% 29.68 in 1.9 mi West 6.9 mph - N/A   Haze
2:30 AM 82 °F - 76 °F 77% 29.68 in 1 mi Calm Calm - -   Haze
2:40 AM 80.6 °F 87.1 °F 77.0 °F 89% 29.68 in 1.9 mi SW 5.8 mph - N/A   Haze
3:10 AM 82.4 °F 89.5 °F 75.2 °F 79% 29.68 in 1.9 mi West 9.2 mph - N/A   Haze
3:40 AM 82.4 °F 90.9 °F 77.0 °F 84% 29.68 in 1.9 mi West 6.9 mph - N/A   Haze
4:10 AM 82.4 °F 90.9 °F 77.0 °F 84% 29.68 in 1.9 mi West 10.4 mph - N/A   Haze
4:40 AM 82.4 °F 89.5 °F 75.2 °F 79% 29.68 in 1.9 mi WSW 11.5 mph - N/A   Haze
5:10 AM 80.6 °F 86.2 °F 75.2 °F 84% 29.68 in 1.9 mi WSW 6.9 mph - N/A   Haze
5:30 AM 81 °F - 75 °F 78% 29.70 in 1 mi Calm Calm - -   Haze
5:40 AM 80.6 °F 86.2 °F 75.2 °F 84% 29.68 in 1.9 mi WSW 9.2 mph - N/A   Haze
6:10 AM 80.6 °F 87.1 °F 77.0 °F 89% 29.68 in 1.9 mi WSW 6.9 mph - N/A   Haze
6:40 AM 80.6 °F 86.2 °F 75.2 °F 84% 29.71 in 1.7 mi WSW 8.1 mph - N/A   Haze
7:10 AM 82.4 °F 90.9 °F 77.0 °F 84% 29.71 in 1.7 mi SW 5.8 mph - N/A   Haze
7:40 AM 82.4 °F 90.9 °F 77.0 °F 84% 29.74 in 1.7 mi West 9.2 mph - N/A   Haze
8:10 AM 82.4 °F 89.5 °F 75.2 °F 79% 29.74 in 1.7 mi West 9.2 mph - N/A   Haze
8:30 AM 83 °F - 76 °F 74% 29.76 in 1 mi West 3.5 mph - -   Haze
9:10 AM 84.2 °F 94.1 °F 77.0 °F 79% 29.77 in 1.9 mi WSW 10.4 mph - N/A   Haze
9:40 AM 84.2 °F 92.3 °F 75.2 °F 74% 29.77 in 1.9 mi SW 10.4 mph - N/A   Haze
10:10 AM 84.2 °F 92.3 °F 75.2 °F 74% 29.77 in 1.9 mi WSW 11.5 mph - N/A   Haze
10:40 AM 86.0 °F 93.4 °F 73.4 °F 66% 29.77 in 2.2 mi WSW 12.7 mph - N/A   Smoke
11:10 AM 86.0 °F 95.1 °F 75.2 °F 70% 29.74 in 2.2 mi WSW 11.5 mph - N/A   Smoke
11:30 AM 87 °F - 76 °F 63% 29.76 in 2 mi West 6.9 mph - -   Smoke
11:40 AM 86.0 °F 95.1 °F 75.2 °F 70% 29.74 in 2.2 mi West 12.7 mph - N/A   Smoke
12:10 PM 86.0 °F 95.1 °F 75.2 °F 70% 29.74 in 2.2 mi SW 11.5 mph - N/A   Smoke
12:40 PM 87.8 °F 97.6 °F 75.2 °F 66% 29.71 in 2.2 mi WSW 12.7 mph - N/A   Smoke
1:10 PM 87.8 °F 97.6 °F 75.2 °F 66% 29.71 in 2.2 mi WSW 13.8 mph - N/A   Smoke
1:40 PM 86.0 °F 95.1 °F 75.2 °F 70% 29.71 in 2.2 mi WSW 9.2 mph - N/A   Smoke
2:10 PM 86.0 °F 95.1 °F 75.2 °F 70% 29.68 in 2.2 mi WSW 10.4 mph 21.9 mph N/A   Smoke
2:40 PM 86.0 °F 95.1 °F 75.2 °F 70% 29.68 in 2.2 mi West 9.2 mph 20.7 mph N/A   Smoke
3:10 PM 86.0 °F 96.9 °F 77.0 °F 74% 29.68 in 2.5 mi West 8.1 mph 19.6 mph N/A   Smoke
3:40 PM 86.0 °F 96.9 °F 77.0 °F 74% 29.68 in 2.5 mi West 8.1 mph 19.6 mph N/A   Smoke
4:10 PM 86.0 °F 96.9 °F 77.0 °F 74% 29.65 in 2.5 mi WSW 8.1 mph 19.6 mph N/A   Smoke
4:40 PM 86.0 °F 96.9 °F 77.0 °F 74% 29.65 in 2.5 mi West 9.2 mph 20.7 mph N/A   Smoke
5:10 PM 84.2 °F 94.1 °F 77.0 °F 79% 29.68 in 2.5 mi West 8.1 mph 19.6 mph N/A   Haze
5:30 PM 85 °F - 77 °F 70% 29.68 in 1 mi West 6.9 mph - -   Haze
5:40 PM 84.2 °F 94.1 °F 77.0 °F 79% 29.68 in 2.2 mi West 12.7 mph - N/A   Haze
6:10 PM 84.2 °F 94.1 °F 77.0 °F 79% 29.68 in 2.2 mi WSW 12.7 mph - N/A   Haze
6:40 PM 82.4 °F 92.4 °F 78.8 °F 89% 29.68 in 2.2 mi West 12.7 mph - N/A   Haze
7:10 PM 80.6 °F 87.1 °F 77.0 °F 89% 29.71 in 1.6 mi SW 9.2 mph - N/A Rain Rain
7:40 PM 80.6 °F 87.1 °F 77.0 °F 89% 29.71 in 1.7 mi West 11.5 mph - N/A   Drizzle
8:10 PM 82.4 °F 92.4 °F 78.8 °F 89% 29.71 in 1.7 mi West 10.4 mph - N/A   Light Drizzle
8:30 PM 82 °F - 78 °F 84% 29.73 in 1 mi West 3.5 mph - - Rain Light Drizzle
9:10 PM 82.4 °F 92.4 °F 78.8 °F 89% 29.74 in 1.9 mi West 9.2 mph - N/A   Haze
10:10 PM 82.4 °F 90.9 °F 77.0 °F 84% 29.77 in 1.9 mi West 10.4 mph - N/A   Haze
10:40 PM 82.4 °F 90.9 °F 77.0 °F 84% 29.77 in 1.9 mi West 8.1 mph - N/A   Haze
11:10 PM 82.4 °F 90.9 °F 77.0 °F 84% 29.74 in 1.9 mi WSW 11.5 mph - N/A   Haze
11:30 PM 82 °F - 77 °F 82% 29.76 in 1 mi West 3.5 mph - -   Haze
11:40 PM 82.4 °F 90.9 °F 77.0 °F 84% 29.74 in 1.9 mi West 10.4 mph - N/A   Haze